Location: Wojcin
(51.3330°N, 20.0330°E)
Time: 21:41:07
(UTC+02:00)

BlueWalker 3 - Visible Passes

Search period start: 01 October 2023 00:00
Search period end: 11 October 2023 00:00
Orbit: 491 x 508 km, 53.2° (Epoch: 01 October)

Date Brightness Start Highest point End Pass type
(mag) Time Alt. Az. Time Alt. Az. Time Alt. Az.
01 Oct 3.8 03:39:24 26° E 03:39:24 26° E 03:41:14 10° E visible
01 Oct 2.5 05:14:03 26° W 05:15:41 40° SSW 05:19:19 10° SE visible
02 Oct 4.8 03:19:09 13° E 03:19:09 13° E 03:19:37 10° E visible
02 Oct 2.4 04:53:48 39° SW 04:54:05 40° SSW 04:57:42 10° SE visible
03 Oct 3.1 04:33:41 30° S 04:33:41 30° S 04:36:04 10° SE visible
04 Oct 4.3 04:13:43 14° SSE 04:13:43 14° SSE 04:14:26 10° SE visible
09 Oct 4.0 19:25:32 10° SSE 19:26:36 13° SSE 19:26:36 13° SSE visible
10 Oct 3.8 19:03:47 10° SSE 19:05:46 14° SE 19:06:17 13° SE visible
10 Oct 4.1 20:39:50 10° SW 20:40:56 18° SW 20:40:56 18° SW visible
